Flag for Germany Weather past 2 weeks in Delbrück, North Rhine-Westphalia, Germany

54 °F

Drizzle. Fog.

Feels Like: 53 °F
Forecast: 40 / 54 °F
Wind: 5 mph from North

Location: Paderborn / Lippstadt

Current Time: Oct 9, 2015 at 6:34:46 PM

Latest Report: Oct 9, 2015 at 5:50 PM

Visibility: 3 mi

Pressure: 30.15 "Hg

Humidity: 100%

Dew point: 54 °F

Location of DelbrückLocation

Historic Weather in Delbrück — Graph


Delbrück temperature yesterday

Maximum temperature yesterday: 54 °F (at 12:50 AM)
Minimum temperature yesterday: 50 °F (at 9:20 PM)
Average temperature yesterday: 53 °F

Past Weeks' High & Low Weather Summary

High66 °F (Oct 6, 2:50 PM)100% (Sep 25, 1:50 AM)30.66 "Hg (Sep 25, 1:50 AM)
Low34 °F (Oct 2, 6:20 AM)39% (Oct 2, 5:20 PM)29.65 "Hg (Oct 6, 5:20 AM)
Average52 °F80%30.21 "Hg
* Reported Sep 24 5:20 PM — Oct 9 5:20 PM, Delbrück, Weather by CustomWeather, © 2015

Note: Actual official high and low records may vary slightly from our data, if they occured in-between our weather recording intervals... More about our weather records


Delbrück weather history for previous 24 hours

Time TempWeatherWind HumidityBarometerVisibility
5:20 PM
Fri, Oct 9
54 °FDrizzle. Fog.3 mph94%30.15 "Hg3 mi
4:20 PM54 °FFog.6 mph100%30.15 "Hg2 mi
3:50 PM54 °FFog.5 mph100%30.15 "Hg2 mi
3:20 PM54 °FFog.5 mph100%30.15 "Hg2 mi
2:50 PM54 °FFog.5 mph100%30.15 "Hg2 mi
2:20 PM54 °FFog.6 mph100%30.15 "Hg2 mi
1:50 PM54 °FDrizzle. Fog.5 mph100%30.15 "Hg1 mi
1:20 PM54 °FDrizzle. Fog.3 mph94%30.15 "Hg1 mi
12:50 PM54 °FDrizzle. Fog.2 mph94%30.15 "Hg1 mi
12:20 PM52 °FDrizzle. Fog.3 mph100%30.15 "Hg1 mi
11:50 AM52 °FDrizzle. Fog.3 mph94%30.15 "Hg0 mi
11:20 AM50 °FDrizzle. Fog.3 mph100%30.15 "Hg0 mi
10:50 AM50 °FDrizzle. Fog.3 mph100%30.15 "Hg1 mi
10:20 AM50 °FDrizzle. Fog.3 mph100%30.15 "Hg1 mi
9:50 AM50 °FLight rain. Fog.5 mph100%30.15 "Hg1 mi
9:20 AM50 °FLight rain. Fog.3 mph94%30.15 "Hg1 mi
8:50 AM50 °FLight rain. Fog.5 mph100%30.15 "Hg1 mi
8:20 AM50 °FLight rain. Fog.6 mph100%30.15 "Hg1 mi
7:50 AM50 °FLight rain. Fog.5 mph100%30.15 "Hg1 mi
7:20 AM50 °FLight rain. Fog.5 mph94%30.15 "Hg1 mi
6:50 AM50 °FLight rain. Fog.5 mph94%30.15 "Hg1 mi
6:20 AM50 °FLight rain. Fog.3 mph94%30.15 "Hg1 mi
5:50 AM50 °FLight rain. Fog.5 mph94%30.15 "Hg1 mi
5:20 AM50 °FLight rain. Fog.5 mph100%30.15 "Hg1 mi
4:50 AM50 °FLight rain. Fog.6 mph94%30.15 "Hg1 mi
4:20 AM50 °FLight rain. Fog.6 mph100%30.15 "Hg1 mi
3:50 AM50 °FPassing clouds.7 mph100%30.15 "Hg1 mi
3:20 AM50 °FDrizzle. Fog.6 mph100%30.15 "Hg1 mi
2:50 AM50 °FDrizzle. Fog.6 mph100%30.15 "Hg1 mi
2:20 AM50 °FDrizzle. Fog.6 mph100%30.15 "Hg1 mi
1:50 AM50 °FDrizzle. Fog.7 mph100%30.15 "Hg1 mi
1:20 AM50 °FDrizzle. Fog.5 mph100%30.15 "Hg1 mi
12:50 AM50 °FDrizzle. Fog.6 mph100%30.15 "Hg1 mi
12:20 AM50 °FDrizzle. Fog.5 mph100%30.18 "Hg1 mi
11:20 PM
Thu, Oct 8
50 °FFog.6 mph100%30.18 "Hg2 mi
10:50 PM50 °FFog.6 mph100%30.15 "Hg2 mi
10:20 PM50 °FFog.6 mph100%30.15 "Hg2 mi
9:50 PM50 °FFog.5 mph100%30.15 "Hg2 mi
9:20 PM50 °FFog.6 mph100%30.15 "Hg2 mi
8:50 PM52 °FFog.7 mph94%30.15 "Hg1 mi
8:20 PM52 °FFog.6 mph94%30.15 "Hg2 mi
7:50 PM52 °FDrizzle. Fog.6 mph94%30.15 "Hg1 mi
7:20 PM52 °FDrizzle. Fog.7 mph94%30.15 "Hg1 mi
6:50 PM52 °FFog.10 mph94%30.12 "Hg1 mi
6:20 PM52 °FFog.5 mph100%30.12 "Hg2 mi
Weather by CustomWeather, © 2015

See weather overviewHow to use our weather pages